Regional Weather Roundup
Issued by NWS

Home | Current Version | Previous Version | Graphics & Text | Print | Product List | Glossary On
Versions: 1 2 3 4 5 6 7 8 9 10 11 12 13 14 15 16 17 18 19 20 21 22 23 24 25 26 27 28 29 30 31 32 33 34 35 36 37 38 39 40 41 42 43 44 45 46 47 48 49 50
000
ASUS45 KSLC 281810
RWRUT

UTAH REGIONAL WEATHER ROUNDUP
NATIONAL WEATHER SERVICE SALT LAKE CITY UT
1200 PM MDT MON JUL 28 2014

UTZ001>011-023>025-281900-

NORTHERN UTAH

CITY           SKY/WX    TMP DP  RH WIND       PRES   REMARKS
HILL AFB       MOSUNNY   87  53  31 W14       30.24S
LOGAN          SUNNY     83  46  27 N8        30.22F
OGDEN          PTSUNNY   88  52  29 W8        30.21S
PROVO AIRPORT  PTSUNNY   84  54  34 CALM      30.24F
SALT LAKE CITY MOSUNNY   89  48  24 SW6       30.18F
VERNAL         PTSUNNY   77  50  38 S6        30.31S
WENDOVER       PTSUNNY   88  46  23 S9        30.19S
HEBER CITY     MOSUNNY   82  46  28 N6        30.29F
WEST JORDAN    SUNNY     90  57  33 SE14      30.23F

$$

UTZ012>022-026-027-281900-

SOUTHERN UTAH

CITY           SKY/WX    TMP DP  RH WIND       PRES   REMARKS
BRYCE CANYON   MOSUNNY   70  54  56 S13G20    30.49F
CEDAR CITY     CLOUDY    73  55  53 S10       30.35S
MILFORD        CLOUDY    79  51  37 S17G26    30.29S
MOAB/CYNLANDS  MOSUNNY   84  53  34 VRB6      30.26F
PRICE          CLOUDY    81  51  35 S8        30.36S
ST GEORGE      PTCLDY    88  54  31 CALM      30.19S
KANAB            N/A     82  50  32 S9        30.33F

$$

REGIONAL REPORTS     COLORADO/ARIZONA

CITY           SKY/WX    TMP DP  RH WIND       PRES   REMARKS
CRAIG, CO      MOSUNNY   75  50  41 NW10      30.37F
GRAND JUNCTION CLOUDY    79  56  45 W6        30.30F
RIFLE          PTSUNNY   83  48  29 VRB5      30.33F
MONTROSE       MOSUNNY   83  51  33 N8        30.37F
CORTEZ         CLOUDY    73  56  54 NW3       30.41F
PAGE, AZ       SUNNY     86  53  32 VRB6      30.26F
GRAND CANYON   MOSUNNY   75  53  46 MISG      30.44S
KINGMAN        SUNNY     90  53  28 SW12      30.20S
FLAGSTAFF      PTSUNNY   72  46  39 SW6       30.47F

$$

REGIONAL REPORTS    NEVADA/IDAHO/WYOMING

CITY           SKY/WX    TMP DP  RH WIND       PRES   REMARKS
LAS VEGAS, NV  PTSUNNY   89  57  33 VRB7      30.09F
ELY            CLOUDY    77  47  34 VRB5      30.35F
ELKO           MOSUNNY   88  43  20 NE9       30.23F
POCATELLO, ID  SUNNY     82  43  25 W6        30.22S
BURLEY         LGT RAIN  79  51  37 S10       30.20R
EVANSTON, WY   MOSUNNY   79  42  26 NW5       30.41F
ROCK SPRINGS   SUNNY     84  34  16 S6        30.38F

$$


USA.gov is the U.S. government's official web portal to all federal, state and local government web resources and services.